TimeCST,TemperatureF,Dew PointF,Humidity,Sea Level PressureIn,VisibilityMPH,Wind Direction,Wind SpeedMPH,Gust SpeedMPH,PrecipitationIn,Events,Conditions,WindDirDegrees,DateUTC
12:15 AM,28.4,24.8,86,30.26,7.0,South,5.8,-,N/A,,Clear,180,2012-12-31 06:15:00
12:35 AM,28.4,24.8,86,30.25,7.0,South,6.9,-,N/A,,Clear,180,2012-12-31 06:35:00
12:55 AM,28.4,26.6,93,30.25,7.0,South,6.9,-,N/A,,Clear,180,2012-12-31 06:55:00
1:15 AM,28.4,26.6,93,30.23,7.0,South,6.9,-,N/A,,Clear,170,2012-12-31 07:15:00
1:35 AM,30.2,26.6,86,30.23,7.0,South,5.8,-,N/A,,Clear,170,2012-12-31 07:35:00
1:55 AM,30.2,26.6,86,30.24,10.0,South,5.8,-,N/A,,Clear,180,2012-12-31 07:55:00
2:15 AM,30.2,26.6,86,30.25,10.0,South,4.6,-,N/A,,Clear,190,2012-12-31 08:15:00
2:35 AM,30.2,26.6,86,30.26,10.0,SSW,3.5,-,N/A,,Clear,200,2012-12-31 08:35:00
2:55 AM,32.0,26.6,80,30.25,10.0,SSW,5.8,-,N/A,,Clear,200,2012-12-31 08:55:00
3:15 AM,32.0,26.6,80,30.24,10.0,SSW,5.8,-,N/A,,Clear,200,2012-12-31 09:15:00
3:35 AM,32.0,28.4,87,30.24,10.0,SSW,4.6,-,N/A,,Clear,210,2012-12-31 09:35:00
3:55 AM,32.0,28.4,87,30.24,10.0,SSW,4.6,-,N/A,,Clear,200,2012-12-31 09:55:00
4:15 AM,33.8,28.4,81,30.23,10.0,SSW,5.8,-,N/A,,Clear,200,2012-12-31 10:15:00
4:35 AM,33.8,28.4,81,30.23,10.0,South,6.9,-,N/A,,Clear,180,2012-12-31 10:35:00
4:55 AM,33.8,28.4,81,30.22,10.0,SSW,5.8,-,N/A,,Scattered Clouds,200,2012-12-31 10:55:00
5:15 AM,33.8,28.4,81,30.22,10.0,South,4.6,-,N/A,,Scattered Clouds,190,2012-12-31 11:15:00
5:35 AM,33.8,28.4,81,30.23,10.0,SSW,4.6,-,N/A,,Scattered Clouds,200,2012-12-31 11:35:00
5:55 AM,33.8,28.4,81,30.21,10.0,South,6.9,-,N/A,,Scattered Clouds,190,2012-12-31 11:55:00
6:15 AM,33.8,28.4,81,30.21,10.0,South,6.9,-,N/A,,Scattered Clouds,190,2012-12-31 12:15:00
6:35 AM,33.8,28.4,81,30.20,10.0,South,5.8,-,N/A,,Unknown,190,2012-12-31 12:35:00
6:55 AM,33.8,28.4,81,30.21,10.0,South,4.6,-,N/A,,Scattered Clouds,190,2012-12-31 12:55:00
7:15 AM,33.8,28.4,81,30.20,10.0,SSW,4.6,-,N/A,,Unknown,200,2012-12-31 13:15:00
7:35 AM,33.8,28.4,81,30.20,10.0,South,6.9,-,N/A,,Scattered Clouds,190,2012-12-31 13:35:00
7:55 AM,33.8,28.4,81,30.20,10.0,South,6.9,-,N/A,,Scattered Clouds,190,2012-12-31 13:55:00
8:15 AM,35.6,28.4,75,30.19,10.0,South,4.6,-,N/A,,Mostly Cloudy,190,2012-12-31 14:15:00
8:35 AM,35.6,28.4,75,30.19,10.0,SSW,5.8,-,N/A,,Scattered Clouds,200,2012-12-31 14:35:00
8:55 AM,35.6,28.4,75,30.19,10.0,South,4.6,-,N/A,,Mostly Cloudy,180,2012-12-31 14:55:00
9:15 AM,35.6,28.4,75,30.19,5.0,SSW,4.6,-,N/A,Snow,Light Snow,200,2012-12-31 15:15:00
9:35 AM,37.4,30.2,75,30.19,10.0,South,4.6,-,N/A,,Mostly Cloudy,190,2012-12-31 15:35:00
9:55 AM,37.4,30.2,75,30.18,10.0,South,4.6,-,N/A,,Mostly Cloudy,190,2012-12-31 15:55:00
10:15 AM,37.4,28.4,70,30.19,10.0,SSW,4.6,-,N/A,,Scattered Clouds,200,2012-12-31 16:15:00
10:35 AM,39.2,28.4,65,30.17,10.0,SSW,8.1,-,N/A,,Unknown,210,2012-12-31 16:35:00
10:55 AM,37.4,28.4,70,30.18,10.0,SSW,6.9,-,N/A,,Unknown,210,2012-12-31 16:55:00
11:15 AM,39.2,28.4,65,30.17,10.0,SSW,6.9,-,N/A,,Clear,210,2012-12-31 17:15:00
11:35 AM,37.4,28.4,70,30.17,10.0,SSW,6.9,-,N/A,,Clear,200,2012-12-31 17:35:00
11:55 AM,37.4,30.2,75,30.16,10.0,SW,5.8,-,N/A,,Scattered Clouds,230,2012-12-31 17:55:00
12:15 PM,37.4,30.2,75,30.15,2.5,SW,4.6,-,N/A,,Overcast,220,2012-12-31 18:15:00
1:15 PM,37.4,33.8,87,30.12,5.0,Calm,Calm,-,N/A,Rain,Light Rain,0,2012-12-31 19:15:00
1:35 PM,37.4,33.8,87,30.12,5.0,Calm,Calm,-,N/A,Rain,Light Rain,0,2012-12-31 19:35:00
1:55 PM,35.6,33.8,93,30.11,4.0,Calm,Calm,-,N/A,Rain,Light Rain,0,2012-12-31 19:55:00
2:15 PM,35.6,33.8,93,30.11,4.0,SSW,3.5,-,N/A,Rain,Light Rain,200,2012-12-31 20:15:00
2:35 PM,35.6,33.8,93,30.11,4.0,Calm,Calm,-,N/A,Rain,Rain,0,2012-12-31 20:35:00
2:55 PM,35.6,33.8,93,30.12,3.0,SW,3.5,-,N/A,Rain,Light Rain,220,2012-12-31 20:55:00
3:15 PM,35.6,35.6,100,30.12,2.5,Calm,Calm,-,N/A,Rain,Light Rain,0,2012-12-31 21:15:00
3:35 PM,33.8,33.8,100,30.11,1.8,Calm,Calm,-,N/A,Rain,Light Rain,0,2012-12-31 21:35:00
3:55 PM,33.8,33.8,100,30.11,1.8,Calm,Calm,-,N/A,Rain,Light Rain,0,2012-12-31 21:55:00
4:15 PM,33.8,33.8,100,30.11,1.8,Calm,Calm,-,N/A,Rain,Light Rain,0,2012-12-31 22:15:00
4:35 PM,33.8,33.8,100,30.11,1.5,Calm,Calm,-,0.01,,Light Drizzle,0,2012-12-31 22:35:00
4:55 PM,33.8,33.8,100,30.11,2.0,Calm,Calm,-,N/A,,Overcast,0,2012-12-31 22:55:00
5:15 PM,33.8,33.8,100,30.11,2.0,Calm,Calm,-,N/A,Rain,Light Rain,0,2012-12-31 23:15:00
5:35 PM,33.8,33.8,100,30.10,2.0,Calm,Calm,-,N/A,Snow,Light Snow,0,2012-12-31 23:35:00
5:55 PM,33.8,33.8,100,30.10,1.8,Calm,Calm,-,N/A,Rain,Rain,0,2012-12-31 23:55:00
6:15 PM,33.8,33.8,100,30.11,1.8,Calm,Calm,-,N/A,Rain,Rain,0,2013-01-01 00:15:00
6:35 PM,33.8,33.8,100,30.10,2.0,Calm,Calm,-,0.01,Rain,Light Rain,0,2013-01-01 00:35:00
6:55 PM,33.8,33.8,100,30.10,2.0,Calm,Calm,-,N/A,Rain,Light Rain,0,2013-01-01 00:55:00
7:15 PM,33.8,33.8,100,30.09,1.8,Calm,Calm,-,0.01,Rain,Rain,0,2013-01-01 01:15:00
7:35 PM,33.8,33.8,100,30.10,1.8,Calm,Calm,-,0.01,,Overcast,0,2013-01-01 01:35:00
7:55 PM,33.8,33.8,100,30.10,2.0,Calm,Calm,-,N/A,Rain,Light Rain,0,2013-01-01 01:55:00
8:15 PM,33.8,33.8,100,30.09,1.5,Calm,Calm,-,0.01,Snow,Snow,0,2013-01-01 02:15:00
8:35 PM,33.8,33.8,100,30.08,1.5,Calm,Calm,-,0.02,,Overcast,0,2013-01-01 02:35:00
8:55 PM,33.8,33.8,100,30.09,1.5,Calm,Calm,-,N/A,Snow,Light Snow,0,2013-01-01 02:55:00
9:15 PM,33.8,33.8,100,30.08,2.0,Calm,Calm,-,N/A,Rain,Light Rain,0,2013-01-01 03:15:00
9:35 PM,33.8,33.8,100,30.08,2.0,Calm,Calm,-,N/A,,Unknown,0,2013-01-01 03:35:00
9:55 PM,33.8,33.8,100,30.08,2.0,Calm,Calm,-,N/A,Rain,Light Rain,0,2013-01-01 03:55:00
10:15 PM,33.8,33.8,100,30.07,1.5,Calm,Calm,-,N/A,,Light Drizzle,0,2013-01-01 04:15:00
10:35 PM,33.8,33.8,100,30.08,1.8,Calm,Calm,-,N/A,,Overcast,0,2013-01-01 04:35:00
10:55 PM,33.8,33.8,100,30.08,1.8,Calm,Calm,-,N/A,Rain,Light Rain,0,2013-01-01 04:55:00
11:15 PM,33.8,33.8,100,30.08,1.5,Calm,Calm,-,N/A,Rain,Light Rain,0,2013-01-01 05:15:00
11:35 PM,33.8,33.8,100,30.08,1.0,Calm,Calm,-,N/A,,Light Drizzle,0,2013-01-01 05:35:00
11:55 PM,33.8,33.8,100,30.08,1.5,Calm,Calm,-,N/A,,Light Drizzle,0,2013-01-01 05:55:00